Location: Handeloh
(53.2500°N, 9.8330°E)
Time: 03:32:20
(UTC+01:00)

S-56A Canister/Altair - Pass Details

Date: 24 November 2019
Orbit: 632 x 2500 km, 38.9° (Epoch: 14 December)

Event Time Altitude Azimuth Distance (km) Brightness Sun altitude
Rises 17:44:48 0° 249° (WSW) 5,402 13.9 -13.1°
Reaches altitude 10° 17:49:14 10° 240° (WSW) 4,094 12.6 -13.7°
Maximum altitude 17:57:42 30° 185° (S) 2,223 10.0 -15.0°
Drops below altitude 10° 18:03:47 10° 127° (SE) 2,890 10.1 -15.8°
Enters shadow 18:04:16 - 125° (SE) 3,019 10.2 -15.9°
Sets 18:06:21 0° 116° (ESE) 3,625 - -16.2°
